| time (UTC) | temp F | wind direction | speed MPH | gust MPH | rain 1hr in | rain 24hr in | rain mn in | humidity % | barometer mb |
| 20260505234524 | 49 | 314 | 0.0 | 2.0 | 0.00 | 0.00 | 0.00 | 100 | 1008.0 |
| 20260505233010 | 49 | 317 | 1.0 | 5.0 | 0.00 | 0.00 | 0.00 | 100 | 1007.8 |
| 20260505231510 | 49 | 296 | 1.0 | 3.0 | 0.00 | 0.00 | 0.00 | 100 | 1007.6 |
| 20260505230105 | 49 | 289 | 0.0 | 3.0 | 0.00 | 0.00 | 0.00 | 100 | 1007.5 |
| 20260505224557 | 49 | 340 | 1.0 | 3.0 | 0.00 | 0.00 | 0.00 | 100 | 1007.4 |
| 20260505223052 | 50 | 336 | 1.0 | 3.0 | 0.00 | 0.00 | 0.00 | 100 | 1007.5 |
| 20260505221549 | 50 | 267 | 0.0 | 4.0 | 0.00 | 0.00 | 0.00 | 100 | 1007.5 |
| 20260505220057 | 50 | 340 | 0.0 | 5.0 | 0.00 | 0.00 | 0.00 | 100 | 1007.1 |
| 20260505214541 | 50 | 308 | 4.0 | 10.0 | 0.00 | 0.00 | 0.00 | 100 | 1007.5 |
| 20260505213034 | 51 | 344 | 2.0 | 8.0 | 0.00 | 0.00 | 0.00 | 100 | 1007.3 |
| 20260505211530 | 51 | 40 | 4.0 | 14.0 | 0.00 | 0.00 | 0.00 | 100 | 1006.9 |
| 20260505210025 | 54 | 348 | 5.0 | 11.0 | 0.00 | 0.00 | 0.00 | 100 | 1006.7 |
| 20260505204520 | 55 | 5 | 2.0 | 6.0 | 0.00 | 0.00 | 0.00 | 100 | 1006.8 |
| 20260505203017 | 55 | 329 | 2.0 | 6.0 | 0.00 | 0.00 | 0.00 | 100 | 1006.5 |
| 20260505201513 | 56 | 348 | 5.0 | 12.0 | 0.00 | 0.00 | 0.00 | 15 | 1006.5 |
| 20260505200008 | 58 | 346 | 3.0 | 10.0 | 0.00 | 0.00 | 0.00 | 32 | 1006.4 |
| 20260505194509 | 60 | 355 | 6.0 | 15.0 | 0.00 | 0.00 | 0.00 | 31 | 1006.1 |
| 20260505193005 | 60 | 338 | 2.0 | 12.0 | 0.00 | 0.00 | 0.00 | 30 | 1006.1 |
| 20260505191501 | 60 | 293 | 4.0 | 9.0 | 0.00 | 0.00 | 0.00 | 29 | 1006.3 |
| 20260505184604 | 60 | 325 | 5.0 | 12.0 | 0.00 | 0.00 | 0.00 | 31 | 1006.3 |
| 20260505183058 | 60 | 323 | 4.0 | 14.0 | 0.00 | 0.00 | 0.00 | 32 | 1006.3 |
| 20260505181559 | 60 | 14 | 4.0 | 14.0 | 0.00 | 0.00 | 0.00 | 33 | 1006.3 |
| 20260505180058 | 61 | 331 | 5.0 | 17.0 | 0.00 | 0.00 | 0.00 | 38 | 1006.1 |
| 20260505174607 | 61 | 5 | 6.0 | 19.0 | 0.00 | 0.00 | 0.00 | 44 | 1005.8 |
| 20260505173046 | 63 | 351 | 9.0 | 19.0 | 0.00 | 0.00 | 0.00 | 52 | 1005.4 |
| 20260505171543 | 64 | 355 | 9.0 | 21.0 | 0.00 | 0.00 | 0.00 | 54 | 1005.2 |
| 20260505170141 | 66 | 344 | 10.0 | 21.0 | 0.00 | 0.00 | 0.00 | 56 | 1005.0 |
| 20260505164541 | 65 | 355 | 5.0 | 10.0 | 0.00 | 0.00 | 0.00 | 54 | 1004.9 |
| 20260505163043 | 66 | 350 | 6.0 | 14.0 | 0.00 | 0.00 | 0.00 | 56 | 1005.1 |
| 20260505161542 | 69 | 300 | 7.0 | 20.0 | 0.00 | 0.00 | 0.00 | 55 | 1004.5 |
| 20260505153045 | 65 | 306 | 4.0 | 12.0 | 0.00 | 0.00 | 0.00 | 52 | 1005.1 |
| 20260505151534 | 65 | 302 | 6.0 | 15.0 | 0.00 | 0.00 | 0.00 | 53 | 1004.9 |
| 20260505124516 | 65 | 298 | 9.0 | 14.0 | 0.00 | 0.00 | 0.00 | 54 | 1003.1 |
| 20260505123012 | 65 | 295 | 6.0 | 14.0 | 0.00 | 0.00 | 0.00 | 53 | 1002.9 |
| 20260505121514 | 65 | 301 | 6.0 | 13.0 | 0.00 | 0.00 | 0.00 | 53 | 1003.1 |
| 20260505120011 | 65 | 294 | 5.0 | 15.0 | 0.00 | 0.00 | 0.00 | 53 | 1003.0 |
| 20260505114510 | 65 | 300 | 4.0 | 10.0 | 0.00 | 0.00 | 0.00 | 53 | 1002.9 |
| 20260505113010 | 64 | 292 | 6.0 | 15.0 | 0.00 | 0.00 | 0.00 | 53 | 1002.6 |
| 20260505111509 | 65 | 288 | 6.0 | 15.0 | 0.00 | 0.00 | 0.00 | 53 | 1002.4 |
| 20260505101505 | 64 | 252 | 4.0 | 9.0 | 0.00 | 0.00 | 0.00 | 53 | 1001.6 |
| 20260505100005 | 64 | 247 | 4.0 | 12.0 | 0.00 | 0.00 | 0.00 | 54 | 1001.5 |
| 20260505094503 | 64 | 287 | 4.0 | 12.0 | 0.00 | 0.00 | 0.00 | 53 | 1001.4 |
| 20260505093003 | 64 | 295 | 6.0 | 14.0 | 0.00 | 0.00 | 0.00 | 53 | 1001.2 |
| 20260505091503 | 64 | 246 | 5.0 | 12.0 | 0.00 | 0.00 | 0.00 | 53 | 1001.2 |
| 20260505090001 | 64 | 295 | 5.0 | 16.0 | 0.00 | 0.00 | 0.00 | 52 | 1001.4 |
| 20260505084601 | 64 | 271 | 6.0 | 12.0 | 0.00 | 0.00 | 0.00 | 52 | 1001.3 |
| 20260505083117 | 64 | 215 | 4.0 | 16.0 | 0.00 | 0.00 | 0.00 | 52 | 1001.2 |
| 20260505081559 | 64 | 235 | 5.0 | 13.0 | 0.00 | 0.00 | 0.00 | 51 | 1001.0 |
| 20260505080058 | 64 | 290 | 4.0 | 15.0 | 0.00 | 0.00 | 0.00 | 51 | 1001.2 |
| 20260505074558 | 64 | 256 | 5.0 | 12.0 | 0.00 | 0.00 | 0.00 | 50 | 1001.0 |
| 20260505073105 | 64 | 259 | 6.0 | 14.0 | 0.00 | 0.00 | 0.00 | 50 | 1000.8 |
| 20260505071556 | 64 | 303 | 4.0 | 12.0 | 0.00 | 0.00 | 0.00 | 50 | 1001.1 |
| 20260505070056 | 64 | 221 | 5.0 | 13.0 | 0.00 | 0.00 | 0.00 | 50 | 1001.0 |
| 20260505064601 | 64 | 285 | 4.0 | 14.0 | 0.00 | 0.00 | 0.00 | 51 | 1001.2 |
| 20260505063054 | 65 | 283 | 6.0 | 16.0 | 0.00 | 0.00 | 0.00 | 52 | 1001.3 |
| 20260505061551 | 65 | 267 | 7.0 | 17.0 | 0.00 | 0.00 | 0.00 | 52 | 1001.5 |
| 20260505060049 | 65 | 303 | 6.0 | 15.0 | 0.00 | 0.00 | 0.00 | 53 | 1001.6 |
| 20260505054556 | 65 | 189 | 7.0 | 22.0 | 0.00 | 0.00 | 0.00 | 54 | 1002.0 |
| 20260505053051 | 65 | 324 | 6.0 | 14.0 | 0.00 | 0.00 | 0.00 | 54 | 1002.2 |
| 20260505051544 | 65 | 259 | 8.0 | 17.0 | 0.00 | 0.00 | 0.00 | 54 | 1002.2 |
| 20260505041535 | 63 | 308 | 1.0 | 3.0 | 0.00 | 0.00 | 0.00 | 49 | 1003.1 |
| 20260505040030 | 64 | 5 | 0.0 | 5.0 | 0.00 | 0.00 | 0.00 | 52 | 1003.1 |
| 20260505034524 | 65 | 288 | 2.0 | 9.0 | 0.00 | 0.00 | 0.00 | 53 | 1003.4 |
| 20260505033021 | 65 | 355 | 5.0 | 14.0 | 0.00 | 0.00 | 0.00 | 53 | 1003.0 |
| 20260505031517 | 66 | 301 | 7.0 | 24.0 | 0.00 | 0.00 | 0.00 | 55 | 1002.4 |
| 20260505030012 | 66 | 291 | 7.0 | 17.0 | 0.00 | 0.00 | 0.00 | 55 | 1002.7 |
| 20260505024521 | 66 | 264 | 6.0 | 18.0 | 0.00 | 0.00 | 0.00 | 55 | 1002.6 |
| 20260505023003 | 66 | 298 | 6.0 | 15.0 | 0.00 | 0.00 | 0.00 | 53 | 1002.7 |
| 20260505021559 | 65 | 257 | 6.0 | 12.0 | 0.00 | 0.00 | 0.00 | 51 | 1002.7 |
| 20260505020055 | 64 | 296 | 5.0 | 9.0 | 0.00 | 0.00 | 0.00 | 47 | 1002.7 |
| 20260505014550 | 63 | 277 | 3.0 | 10.0 | 0.00 | 0.00 | 0.00 | 42 | 1002.7 |
| 20260505013046 | 63 | 254 | 2.0 | 9.0 | 0.00 | 0.00 | 0.00 | 36 | 1002.5 |
| 20260505011542 | 63 | 259 | 3.0 | 8.0 | 0.00 | 0.00 | 0.00 | 31 | 1002.4 |
| 20260505010042 | 60 | 249 | 4.0 | 9.0 | 0.00 | 0.00 | 0.00 | 100 | 1002.3 |
| 20260505004532 | 59 | 246 | 0.0 | 0.0 | 0.00 | 0.00 | 0.00 | 100 | 1002.4 |
| 20260505003028 | 60 | 246 | 0.0 | 2.0 | 0.00 | 0.00 | 0.00 | 100 | 1002.3 |
| 20260505001524 | 62 | 244 | 1.0 | 4.0 | 0.00 | 0.00 | 0.00 | 3 | 1002.2 |
| 20260505000029 | 64 | 231 | 3.0 | 9.0 | 0.00 | 0.00 | 0.00 | 29 | 1002.1 |